Retour au catalogue

NAVSTAR 57

USA 183

ActifNavigationHEO
NORAD 28874·PAYLOAD·🇺🇸 United States

Lancé Sep 26, 2005 depuis Cape Canaveral Space Force Station

Loading…

Prochains Passages (prochaines 24 heures)

TLE

FraisSource: CelesTrak SupGP

Époque: Sep 16, 2026, 16:44 UTC

1 28874C 05038A   26259.69756944  .00000000  00000+0  00000+0 0  2596
2 28874  54.8087 269.4772 0128848 297.6060 138.9210  2.00559747    15

Suivez NAVSTAR 57 en temps réel avec AllMySat

Download on the App Store